Location: Unspecified
(35.7250°N, 0.0000°E)
Time: 17:16:25
(UTC+00:00)

Vanguard 1 - Pass Details

Date: 02 July 2019
Orbit: 653 x 3830 km, 34.3° (Epoch: 18 July)

Event Time Altitude Azimuth Distance (km) Brightness Sun altitude
Rises 19:17:10 0° 178° (S) 6,786 14.0 -0.3°
Reaches altitude 10° 19:24:41 10° 159° (SSE) 6,318 13.7 -1.7°
Maximum altitude 19:35:18 16° 128° (SE) 6,272 13.5 -3.5°
Drops below altitude 10° 19:46:39 10° 98° (E) 6,925 13.8 -5.5°
Sets 19:55:23 0° 81° (E) 7,771 14.2 -6.9°
